Regional Weather Roundup
Issued by NWS Grand Forks, ND

Home | Current Version | Previous Version | Graphics & Text | Print | Product List | Glossary On
Versions: 1 2 3 4 5 6 7 8 9 10 11 12 13 14 15 16 17 18 19 20 21 22 23 24 25 26 27 28 29 30 31 32 33 34 35 36 37 38 39 40 41 42 43 44 45 46 47 48 49 50
000
ASUS43 KFGF 151431
RWRFGF
PRAIRIE TO PINES  WEATHER ROUNDUP
NATIONAL WEATHER SERVICE EASTERN NORTH DAKOTA/GRAND FORKS ND
800 AM CST FRI DEC 15 2017

 **SATELLITE DATA USED TO AUGMENT SKY COVER AT AUTOMATED STATIONS**
 *****  WEATHER ACROSS EASTERN NORTH DAKOTA  *****

CITY           SKY/WX    TMP DP  RH WIND       PRES   REMARKS
GRAND FORKS    CLOUDY    17  14  88 SE5       29.86F WCI  10
GRAND FRKS AFB FLURRIES  18  14  86 S7        29.84F WCI   8
GRAND FRKS NWS   N/A     18 N/A N/A S5          N/A  WCI  11
DEVILS LAKE    FLURRIES  22  20  92 S8        29.77F WCI  12
FARGO          FLURRIES  19  15  84 E3        29.87F
WAHPETON ARPT  CLOUDY    21  18  86 CALM      29.88F
$$

 ***** WEATHER ACROSS CENTRAL AND WESTERN NORTH DAKOTA  *****

CITY           SKY/WX    TMP DP  RH WIND       PRES   REMARKS
BISMARCK       MOCLDY    29  23  78 CALM      29.78F
MINOT          CLOUDY    31  25  78 S6        29.70F
JAMESTOWN      CLOUDY    23  22  96 S7        29.78F WCI  15
MINOT AFB      MOCLDY    29  24  82 S6        29.69F WCI  23
GARRISON         N/A     30  25  81 S6        29.72F WCI  24
WILLISTON      MOCLDY    29  24  82 S3        29.69F
DICKINSON      CLOUDY    31  23  72 W10       29.70F WCI  22
HETTINGER      CLOUDY    28  22  78 W7        29.77F WCI  21
$$

 *****  OTHER AIRPORT OBSERVATIONS IN OUR AREA  *****

CITY           SKY/WX    TMP DP  RH WIND       PRES   REMARKS
WALHALLA       FAIR      16  16 100 SE8       29.80F WCI   5
GRAFTON AIRPOR CLOUDY    16  14  93 SE8       29.86F WCI   5
VALLEY CITY AR CLOUDY    19  19 100 S7G15     29.83F WCI  10
CANDO          CLOUDY    23  23 100 SE7       29.76F WCI  15
CAVALIER APRT  CLOUDY    14  12  92 SE7       29.82F FOG     WCI   4
GWINNER          N/A     21  21 100 SE6       29.83F WCI  14
SHEYENNE NWR     N/A     20  19  96 SE2       29.95S
ROLLA          PTSUNNY   21  21 100 S7        29.70F WCI  13
 ***** THE ABOVE OBSERVATIONS ARE NON NWS ARE NOT QUALITY
       CONTROLLED AND MAY MIS-REPORT RAIN FOR SNOW...
$$

  *****  WEATHER ACROSS NORTHERN MINNESOTA  *****

CITY           SKY/WX    TMP DP  RH WIND       PRES   REMARKS
FLAG ISLAND    CLOUDY     5   1  85 CALM      29.84S
WARROAD        CLOUDY     7   3  85 SW3       29.85F
ROSEAU         FLURRIES   9   3  78 S3        29.84F
HALLOCK        FLURRIES  12  10  92 SE5       29.84F WCI   4
THF RVR FALLS  CLOUDY     9   7  92 S3        29.85F
BAUDETTE       CLOUDY     7   2  80 CALM      29.83F
WASKISH        CLOUDY     7   3  85 W5        29.84F WCI  -2
CROOKSTON      LGT SNOW  16  12  86 S5        29.86F WCI   9
STEPHEN NDAWN    N/A     12   9  85 SE6         N/A  WCI   3
GREENBUSH NDAW   N/A      7   3  85 E2          N/A
$$
  *****  WEATHER ACROSS CENTRAL AND WEST MINNESOTA  *****

CITY           SKY/WX    TMP DP  RH WIND       PRES   REMARKS
FOSSTON        CLOUDY     7   5  92 S3        29.85F
BEMIDJI        LGT SNOW   8   4  85 NW3       29.83F
PARK RAPIDS    MOCLDY     7   3  84 CALM      29.83F
ELBOW LAKE     CLOUDY    20  17  86 CALM      29.87S
WADENA         FAIR      10   9  92 CALM        N/A
DETROIT LAKES  CLOUDY    16  14  93 CALM      29.84F
MOORHEAD       FLURRIES  18  16  93 CALM      29.88F
FERGUS FALLS   FLURRIES  19  16  86 CALM      29.89F
MORRIS MN      CLOUDY    25  21  86 CALM      29.87S
STAPLES        CLOUDY     7   3  85 CALM      29.85S
$$
  *****  WEATHER ELSEWHERE ACROSS MINNESOTA  *****

CITY           SKY/WX    TMP DP  RH WIND       PRES   REMARKS
DULUTH         LGT SNOW  10   5  80 W9        29.81S WCI  -3
INTRNTL FALLS  CLOUDY     6   0  76 W5        29.84F WCI  -3
ELY            CLOUDY     7   1  78 NW3       29.80R
CLOQUET        CLOUDY    10   3  72 W7        29.83S WCI   0
WHEATON        FLURRIES  23  19  86 CALM      29.90S
BRAINERD       CLOUDY    13   8  81 W6        29.85F WCI   4
HIBBING        LGT SNOW   6   2  83 NW7       29.82F FOG     WCI  -6
ALEXANDRIA     CLOUDY    19  15  84 CALM      29.86S
SAINT CLOUD    MOCLDY    16  14  92 CALM      29.87F
MINNEAPOLIS    CLOUDY    23  20  88 NW5       29.89S WCI  17
$$

  *****  WEATHER ACROSS SOUTH DAKOTA  *****

CITY           SKY/WX    TMP DP  RH WIND       PRES   REMARKS
SIOUX FALLS    CLOUDY    32  27  81 W9        29.90F WCI  24
BROOKINGS      CLOUDY    29  26  89 W8        29.86F WCI  21
WATERTOWN      FAIR      26  25  96 SW5       29.83F WCI  20
HURON          FAIR      30  25  81 W7        29.89F WCI  23
SISSETON         N/A     24  22  91 S3        29.86F
ABERDEEN       CLOUDY    29  25  85 W6        29.86F WCI  23
MITCHELL       FAIR      30  24  78 SW8       29.91F WCI  22
PIERRE         FAIR      24  21  88 SW6       29.87F WCI  17
MOBRIDGE       MOCLDY    29  24  82 SW5       29.80F WCI  24
RAPID CITY     FAIR      22  11  62 CALM      29.84F
$$

  *****  SOME WEATHER IN NEARBY STATES *****

CITY           SKY/WX    TMP DP  RH WIND       PRES   REMARKS
GLASGOW MT     FAIR      27  21  78 W5        29.72F WCI  22
GREAT FALLS MT FAIR      43  16  33 SW28G37   29.85R
CHEYENNE WY    FAIR      35  11  36 W25G33    29.97F WCI  23
SCOTTSBLUFF NE FAIR      15  11  83 NW7       29.97F WCI   5
OMAHA NE       MOCLDY    34  23  64 W12       30.06S
DES MOINES IA  CLOUDY    31  23  72 SW8       30.01F WCI  23
DAVENPORT IA   CLOUDY    25  18  74 W12       30.02S WCI  14
CHICAGO IL     FLURRIES  26  17  68 W14       29.92R WCI  14
EAU CLAIRE WI  CLOUDY    17   9  70 NW9       29.88S WCI   6
LA CROSSE WI   CLOUDY    25  17  72 W6        29.90F WCI  18
$$

  *****  SOME NATIONAL WEATHER *****

CITY           SKY/WX    TMP DP  RH WIND       PRES   REMARKS
LA GUARDIA NY  CLOUDY    25  10  53 CALM      30.12R
RALEIGH NC     PTSUNNY   34  24  67 NE8       30.00R
ATLANTA GA     PTSUNNY   37  29  72 NW10      30.04R
NEW ORLEANS LA LGT RAIN  50  41  71 N10       30.16R
OKLAHOMA CITY  FAIR      27  23  85 W7        30.29R WCI  19
ALBUQUERQUE NM FAIR      25  15  66 N6        30.34S WCI  18
SALT LAKE CITY FAIR      29  23  78 E9        30.36S WCI  20
LOS ANGELES CA FAIR      59  21  23 NE5       30.11S
BOISE ID       CLOUDY    26  23  88 SE8       30.36R WCI  18
SEATTLE WA     LGT RAIN  40  34  79 SE7       30.19S
$$

*** WEATHER ACROSS MANITOBA...SASKATCHEWAN AND ONTARIO ***
                ***ONTARIO***

CITY           SKY/WX    TMP DP  RH WIND       PRES   REMARKS
GERALDTON      FLURRIES  -4  -9  77 N7        29.77S WCI -18
THUNDER BAY    MOCLDY    10   3  72 N7        29.81S WCI   0
SIOUX LOOKOUT  PTCLDY   -13 -18  77 VRB2      29.79F
TORONTO        CLOUDY    19  10  68 SW10      29.90F WCI   8
BIG TROUT LK   FLURRIES -11 -17  77 NW8       29.87F WCI -28
PICKLE LAKE    CLOUDY   -17 -22  76 VRB2      29.82F
DRYDEN         PTCLDY    -6  -9  84 W6        29.80F WCI -18
KENORA         FLURRIES  -6  -9  84 VRB2      29.82F
$$
                *** MANITOBA***

CITY           SKY/WX    TMP DP  RH WIND       PRES   REMARKS
BRANDON        FLURRIES  18  16  93 SE5       29.71F WCI  11
DAUPHIN        CLOUDY    18  14  86 E6        29.71F WCI   9
ISLAND LAKE    NOT AVBL
PILOT MOUND      N/A     19  18  93 S8          N/A  WCI   9
THE PAS        LGT SNOW   5   1  85 E7        29.78F WCI  -7
THOMPSON       FLURRIES -15 -20  76 CALM      29.89F
WINNIPEG       FLURRIES   9   5  85 SE9       29.83F WCI  -5
LYNN LAKE      CLOUDY    -6  -9  84 E9        29.80F WCI -22
CHURCHILL      FLURRIES  -9 -13  84 W10G17    29.96R WCI -28
GILLAM         FLURRIES -20 -26  76 W2        29.93R
$$
                ***SASKATCHEWAN***

CITY           SKY/WX    TMP DP  RH WIND       PRES   REMARKS
ESTEVAN        CLOUDY    30  25  80 SW12      29.63F WCI  21
KINDERSLEY     MOCLDY    27  23  86 W10       29.61F WCI  17
LLOYDMINSTER   CLOUDY    37  32  81 W16G22    29.54F
PRINCE ALBERT  LGT SNOW  27  27 100 E8        29.56F WCI  18
REGINA         CLOUDY    30  28  93 S6        29.57F WCI  24
YORKTON        FLURRIES  27  25  93 SE8       29.61F WCI  18
N. BATTLEFORD  CLOUDY    36  30  80 W6        29.56F
LA RONGE       LGT SNOW  14  10  85 E7        29.62F WCI   4
SASKATOON      CLOUDY    34  30  86 SW5       29.55F
SWIFT CURRENT  CLOUDY    36  21  55 W14       29.63F
$$
NOTE: THESE ARE AUTOMATED STATIONS WITH LIMITED QUALITY CONTROL
      "FAIR" INDICATES FEW OR NO CLOUDS BELOW 12,000 FEET WITH NO
      SIGNIFICANT WEATHER AND/OR OBSTRUCTIONS TO VISIBILITY.
      SKY/WX - SKY CONDITION AND SIGNIFICANT WEATHER.
      TMP - AIR TEMPERATURE.    DP   - DEWPOINT TEMPERATURE.
      RH  - RELATIVE HUMIDITY.  PRES - PRESSURE.
      HX  - HEAT INDEX.         WCI  - WIND CHILL INDEX.
$



USA.gov is the U.S. government's official web portal to all federal, state and local government web resources and services.